TimeMDT,TemperatureF,Dew PointF,Humidity,Sea Level PressureIn,VisibilityMPH,Wind Direction,Wind SpeedMPH,Gust SpeedMPH,PrecipitationIn,Events,Conditions,WindDirDegrees,DateUTC
12:55 AM,25.0,14.0,63,30.32,10.0,NNE,5.8,-,N/A,,Partly Cloudy,20,2013-04-09 06:55:00
1:55 AM,25.0,12.9,60,30.34,10.0,North,5.8,-,N/A,,Clear,350,2013-04-09 07:55:00
2:55 AM,25.0,12.9,60,30.35,10.0,NNE,10.4,-,N/A,,Clear,20,2013-04-09 08:55:00
3:55 AM,24.1,12.9,62,30.35,10.0,NE,4.6,-,N/A,,Clear,40,2013-04-09 09:55:00
4:55 AM,21.0,14.0,74,30.37,10.0,NE,6.9,-,N/A,,Clear,40,2013-04-09 10:55:00
5:55 AM,24.1,16.0,71,30.39,10.0,NNE,4.6,-,N/A,,Overcast,30,2013-04-09 11:55:00
6:55 AM,23.0,16.0,74,30.40,10.0,Calm,Calm,-,N/A,,Mostly Cloudy,0,2013-04-09 12:55:00
7:55 AM,24.1,16.0,71,30.43,10.0,Calm,Calm,-,N/A,,Clear,0,2013-04-09 13:55:00
8:55 AM,28.9,16.0,58,30.44,10.0,North,4.6,-,N/A,,Partly Cloudy,360,2013-04-09 14:55:00
9:55 AM,30.0,14.0,51,30.45,10.0,NNE,8.1,-,N/A,,Overcast,30,2013-04-09 15:55:00
10:55 AM,34.0,15.1,46,30.45,10.0,NNW,3.5,-,N/A,,Overcast,330,2013-04-09 16:55:00
11:55 AM,35.1,15.1,44,30.43,10.0,Calm,Calm,-,N/A,,Scattered Clouds,0,2013-04-09 17:55:00
12:55 PM,37.0,16.0,42,30.40,10.0,East,3.5,-,N/A,,Clear,90,2013-04-09 18:55:00
1:55 PM,39.9,18.0,41,30.38,10.0,Variable,3.5,-,N/A,,Clear,0,2013-04-09 19:55:00
2:55 PM,44.1,19.9,38,30.36,10.0,Variable,5.8,-,N/A,,Clear,0,2013-04-09 20:55:00
3:55 PM,42.1,21.0,43,30.33,10.0,ESE,5.8,-,N/A,,Overcast,110,2013-04-09 21:55:00
4:55 PM,44.1,23.0,43,30.32,10.0,South,4.6,-,N/A,,Overcast,170,2013-04-09 22:55:00
5:55 PM,43.0,23.0,45,30.31,10.0,South,4.6,-,N/A,,Overcast,170,2013-04-09 23:55:00
6:55 PM,43.0,24.1,47,30.30,10.0,Variable,6.9,-,N/A,,Overcast,0,2013-04-10 00:55:00
7:55 PM,41.0,24.1,51,30.29,10.0,South,5.8,-,N/A,,Overcast,180,2013-04-10 01:55:00
8:55 PM,37.9,25.0,60,30.28,10.0,Calm,Calm,-,N/A,,Overcast,0,2013-04-10 02:55:00
9:55 PM,36.0,24.1,62,30.29,10.0,Calm,Calm,-,N/A,,Mostly Cloudy,0,2013-04-10 03:55:00
10:55 PM,33.1,25.0,72,30.27,10.0,Calm,Calm,-,N/A,,Scattered Clouds,0,2013-04-10 04:55:00
11:55 PM,28.9,24.1,82,30.27,10.0,Calm,Calm,-,N/A,,Scattered Clouds,0,2013-04-10 05:55:00